Humidity-temperature Sensor

Selected Measurement Type: Relative Humidity

 
Relative Humidity [%]     6 entries per hour
Showing data from 10/18/2015 (00:00:00 Z) to 10/17/2015 (00:01:00 Z)
Previous Next [ Day | 3-Days | 7-Days ]
First Last
Prev [ Day | 3-Days | 7-Days ] Next
First Last

Start Time:     :
End Time:     :     
Time (in GMT) :00 :50 :40 :30 :20 :10
Previous Next [ Day | 3-Days | 7-Days ]
First Last
Prev [ Day | 3-Days | 7-Days ] Next
First Last


123 => good data
MM => data is determined as missing
-- => data not received/configured
Back to Top Back to Top
10/18/2015 00:00 to 23:10 74.32 74.71 76.01 74.90 76.46 76.01
10/17/2015 23:00 to 22:10 75.34 76.31 76.14 75.66 75.21 75.03
10/17/2015 22:00 to 21:10 75.21 74.60 76.07 74.71 74.86 75.53
10/17/2015 21:00 to 20:10 74.60 74.53 74.30 73.95 73.41 73.11
10/17/2015 20:00 to 19:10 75.49 75.18 75.12 74.84 74.38 74.10
10/17/2015 19:00 to 18:10 72.46 73.88 73.45 71.76 72.69 73.41
10/17/2015 18:00 to 17:10 74.23 73.99 73.76 73.11 73.67 74.04
10/17/2015 17:00 to 16:10 73.54 73.32 72.00 72.89 75.57 74.66
10/17/2015 16:00 to 15:10 78.84 78.21 77.85 78.30 78.45 79.01
10/17/2015 15:00 to 14:10 77.39 74.64 71.98 72.50 79.60 78.41
10/17/2015 14:00 to 13:10 76.05 75.08 84.43 83.78 79.58 74.99
10/17/2015 13:00 to 12:10 74.99 77.24 78.54 82.39 83.17 81.35
10/17/2015 12:00 to 11:10 81.81 74.86 77.24 72.15 66.29 76.27
10/17/2015 11:00 to 10:10 78.84 76.55 75.59 76.72 77.28 74.84
10/17/2015 10:00 to 9:10 75.81 77.26 80.36 80.14 83.52 83.95
10/17/2015 09:00 to 8:10 84.47 83.95 82.46 77.41 77.09 76.85
10/17/2015 08:00 to 7:10 77.48 79.04 81.31 78.32 80.36 81.55
10/17/2015 07:00 to 6:10 78.11 77.30 78.54 81.18 79.95 79.90
10/17/2015 06:00 to 5:10 81.03 80.03 79.23 78.65 80.29 78.97
10/17/2015 05:00 to 4:10 79.32 79.66 80.27 80.27 79.25 80.05
10/17/2015 04:00 to 3:10 81.59 79.58 77.46 77.24 79.30 78.32
10/17/2015 03:00 to 2:10 78.63 78.47 76.89 76.66 75.66 76.89
10/17/2015 02:00 to 1:10 75.70 76.05 75.59 75.14 74.95 75.38
10/17/2015 01:00 to 0:10 75.31 75.23 75.01 74.62 75.21 74.99